Weather History for KDUC - January, 2013

Change the Weather History Date:

Wednesday, January 9, 2013

  Actual Average (KLAW) Record (KLAW)
Temperature  
Mean Temperature 48 °F -  
Max Temperature 51 °F 47 °F 80 °F (2009)
Min Temperature 46 °F 22 °F 3 °F (1977)
Degree Days  
Heating Degree Days 16    
Moisture  
Dew Point 49 °F    
Average Humidity 100    
Maximum Humidity 100    
Minimum Humidity 100    
Precipitation  
Precipitation 0.27 in - - ()
Sea Level Pressure  
Sea Level Pressure 30.14 in    
Wind  
Wind Speed 11 mph (NE)    
Max Wind Speed 23 mph    
Max Gust Speed 31 mph    
Visibility 10 miles    
Events Rain    
Averages and records for this station are not official NWS values.
T = Trace of Precipitation, MM = Missing Value Source: NWS Daily Summary

Daily Weather History Graph

Daily Weather History Graph

Search for Another Location

Airport or City:

Trip Planner

Search our weather history database for the weather conditions in past years. The results will help you decide how hot, cold, wet, or windy it might be!

Date:

Astronomy

Jan. 09, 2013 Rise Set
Actual Time 7:39 AM CST 5:39 PM CST
Civil Twilight 7:11 AM CST 6:07 PM CST
Nautical Twilight 6:40 AM CST 6:38 PM CST
Astronomical Twilight 6:09 AM CST 7:08 PM CST
Moon 5:19 AM CST (1/9) 3:42 PM CST (1/9)
Length of Visible Light 10h 55m
Length of Day
10h 00m
Waning Crescent, 6% of the Moon is Illuminated
Jan 9
Waning Crescent
Jan 11
New
Jan 18
First Quarter
Jan 26
Full
Feb 3
Last Quarter

Hourly Weather History & Observations

Time (CST) Temp. Windchill Dew Point Humidity Pressure Visibility Wind Dir Wind Speed Gust Speed Precip Events Conditions
12:15 AM 48.2 °F - 48.2 °F 100% 30.14 in 10.0 mi ENE 9.2 mph - N/A   Overcast
12:35 AM 48.2 °F - 48.2 °F 100% 30.14 in 10.0 mi ENE 9.2 mph - N/A   Overcast
12:55 AM 48.2 °F - 48.2 °F 100% 30.14 in 10.0 mi ENE 8.1 mph - N/A   Overcast
1:15 AM 48.2 °F - 48.2 °F 100% 30.15 in 10.0 mi ENE 5.8 mph - N/A   Overcast
1:35 AM 46.4 °F 44.3 °F 46.4 °F 100% 30.14 in 10.0 mi NE 4.6 mph - N/A   Overcast
1:55 AM 48.2 °F - 48.2 °F 100% 30.13 in 10.0 mi NE 6.9 mph - N/A   Overcast
2:15 AM 46.4 °F 42.9 °F 46.4 °F 100% 30.13 in 10.0 mi NE 6.9 mph - N/A   Overcast
2:35 AM 46.4 °F 41.5 °F 46.4 °F 100% 30.13 in 10.0 mi NNE 10.4 mph - N/A   Overcast
2:55 AM 46.4 °F 41.9 °F 46.4 °F 100% 30.12 in 10.0 mi NNE 9.2 mph - N/A   Overcast
3:15 AM 46.4 °F 41.5 °F 46.4 °F 100% 30.12 in 10.0 mi NNE 10.4 mph - N/A   Overcast
3:35 AM 46.4 °F 42.4 °F 46.4 °F 100% 30.15 in 10.0 mi NE 8.1 mph - N/A   Overcast
3:55 AM 46.4 °F 41.9 °F 46.4 °F 100% 30.15 in 10.0 mi North 9.2 mph - N/A   Overcast
4:15 AM 46.4 °F 41.1 °F 46.4 °F 100% 30.15 in 10.0 mi NNE 11.5 mph - N/A   Overcast
4:35 AM 48.2 °F - 48.2 °F 100% 30.15 in 10.0 mi NNE 10.4 mph - N/A   Overcast
4:55 AM 46.4 °F 42.4 °F 46.4 °F 100% 30.15 in 10.0 mi NNE 8.1 mph - N/A   Overcast
5:15 AM 46.4 °F 41.9 °F 46.4 °F 100% 30.15 in 10.0 mi NE 9.2 mph - N/A   Overcast
5:35 AM 48.2 °F - 48.2 °F 100% 30.17 in 10.0 mi NNE 11.5 mph - N/A   Overcast
5:55 AM 46.4 °F 41.1 °F 46.4 °F 100% 30.17 in 5.0 mi NE 11.5 mph - N/A   Overcast
6:15 AM 48.2 °F - 48.2 °F 100% 30.19 in 10.0 mi NNE 11.5 mph 16.1 mph N/A   Overcast
6:35 AM 48.2 °F - 48.2 °F 100% 30.18 in 10.0 mi NE 15.0 mph - N/A   Overcast
6:55 AM 46.4 °F 41.5 °F 46.4 °F 100% 30.19 in 10.0 mi NNE 10.4 mph - N/A   Overcast
7:15 AM 46.4 °F 41.9 °F 46.4 °F 100% 30.20 in 10.0 mi NE 9.2 mph - N/A   Overcast
7:35 AM 48.2 °F - 48.2 °F 100% 30.20 in 10.0 mi NE 12.7 mph - N/A   Overcast
7:55 AM 48.2 °F - 48.2 °F 100% 30.19 in 10.0 mi NE 12.7 mph 17.3 mph N/A   Overcast
8:35 AM 48.2 °F - 48.2 °F 100% 30.21 in 10.0 mi ENE 12.7 mph 18.4 mph N/A   Overcast
8:55 AM 48.2 °F - 48.2 °F 100% 30.23 in 10.0 mi NE 12.7 mph 20.7 mph N/A   Overcast
9:15 AM 48.2 °F - 48.2 °F 100% 30.24 in 10.0 mi NE 10.4 mph - N/A   Overcast
9:35 AM 48.2 °F - 48.2 °F 100% 30.24 in 10.0 mi NE 13.8 mph - N/A   Overcast
9:55 AM 48.2 °F - 48.2 °F 100% 30.24 in 10.0 mi NE 15.0 mph 23.0 mph N/A   Overcast
10:15 AM 50.0 °F - 50.0 °F 100% 30.24 in 10.0 mi NE 9.2 mph 19.6 mph N/A   Overcast
10:35 AM 50.0 °F - 50.0 °F 100% 30.23 in 10.0 mi NE 16.1 mph 20.7 mph N/A   Overcast
10:55 AM 50.0 °F - 50.0 °F 100% 30.23 in 10.0 mi NE 16.1 mph 21.9 mph N/A   Overcast
11:15 AM 50.0 °F - 50.0 °F 100% 30.22 in 10.0 mi NE 16.1 mph 23.0 mph N/A   Overcast
11:35 AM 50.0 °F - 50.0 °F 100% 30.21 in 10.0 mi NE 17.3 mph 21.9 mph N/A   Overcast
11:55 AM 50.0 °F - 50.0 °F 100% 30.20 in 10.0 mi NE 13.8 mph - N/A   Overcast
12:15 PM 50.0 °F - 50.0 °F 100% 30.19 in 10.0 mi NE 15.0 mph 24.2 mph N/A   Overcast
12:35 PM 50.0 °F - 50.0 °F 100% 30.17 in 10.0 mi NE 18.4 mph 23.0 mph N/A   Overcast
12:55 PM 50.0 °F - 50.0 °F 100% 30.15 in 7.0 mi NE 18.4 mph 27.6 mph 0.02 in   Overcast
1:15 PM 50.0 °F - 50.0 °F 100% 30.14 in 10.0 mi NE 23.0 mph 28.8 mph N/A   Overcast
1:35 PM 50.0 °F - 50.0 °F 100% 30.12 in 10.0 mi NE 19.6 mph 29.9 mph 0.01 in   Overcast
1:55 PM 50.0 °F - 50.0 °F 100% 30.10 in 10.0 mi NE 20.7 mph 31.1 mph 0.01 in   Overcast
2:15 PM 50.0 °F - 50.0 °F 100% 30.11 in 10.0 mi NE 16.1 mph 24.2 mph N/A   Overcast
2:35 PM 50.0 °F - 50.0 °F 100% 30.12 in 10.0 mi NE 15.0 mph 27.6 mph 0.01 in   Overcast
2:55 PM 50.0 °F - 50.0 °F 100% 30.12 in 10.0 mi NE 16.1 mph 20.7 mph 0.01 in   Overcast
3:15 PM 50.0 °F - 50.0 °F 100% 30.12 in 10.0 mi ENE 12.7 mph 20.7 mph N/A   Overcast
3:35 PM 50.0 °F - 50.0 °F 100% 30.11 in 10.0 mi NE 18.4 mph 23.0 mph N/A   Overcast
3:55 PM 50.0 °F - 50.0 °F 100% 30.10 in 10.0 mi NE 16.1 mph 23.0 mph N/A   Overcast
4:15 PM 50.0 °F - 50.0 °F 100% 30.12 in 10.0 mi NE 13.8 mph 20.7 mph N/A   Overcast
4:35 PM 50.0 °F - 50.0 °F 100% 30.13 in 10.0 mi ENE 10.4 mph 18.4 mph N/A   Overcast
4:55 PM 50.0 °F - 50.0 °F 100% 30.13 in 10.0 mi ENE 12.7 mph 20.7 mph N/A   Overcast
5:15 PM 51.8 °F - 51.8 °F 100% 30.12 in 10.0 mi ENE 15.0 mph - 0.02 in   Overcast
5:35 PM 51.8 °F - 51.8 °F 100% 30.11 in 10.0 mi ENE 15.0 mph 20.7 mph 0.03 in   Overcast
5:55 PM 51.8 °F - 51.8 °F 100% 30.09 in 10.0 mi ENE 13.8 mph 19.6 mph 0.04 in   Overcast
6:15 PM 51.8 °F - 51.8 °F 100% 30.09 in 10.0 mi ENE 15.0 mph 21.9 mph 0.01 in   Overcast
6:35 PM 51.8 °F - 51.8 °F 100% 30.09 in 10.0 mi ENE 17.3 mph 23.0 mph 0.02 in   Overcast
6:55 PM 51.8 °F - 51.8 °F 100% 30.08 in 10.0 mi ENE 17.3 mph 23.0 mph 0.04 in   Overcast
7:15 PM 51.8 °F - 51.8 °F 100% 30.06 in 10.0 mi ENE 19.6 mph 26.5 mph N/A   Overcast
7:35 PM 51.8 °F - 51.8 °F 100% 30.06 in 10.0 mi ENE 18.4 mph 24.2 mph 0.01 in   Overcast
7:55 PM 51.8 °F - 51.8 °F 100% 30.08 in 10.0 mi East 12.7 mph 24.2 mph 0.01 in   Overcast
8:15 PM 51.8 °F - 51.8 °F 100% 30.08 in 10.0 mi ENE 13.8 mph 18.4 mph 0.01 in   Overcast
8:35 PM 51.8 °F - 51.8 °F 100% 30.08 in 10.0 mi ENE 9.2 mph 18.4 mph 0.01 in   Overcast
8:55 PM 51.8 °F - 51.8 °F 100% 30.07 in 10.0 mi ENE 12.7 mph 19.6 mph 0.01 in   Overcast
9:15 PM 51.8 °F - 51.8 °F 100% 30.06 in 10.0 mi ENE 12.7 mph - N/A   Overcast
9:35 PM 51.8 °F - 51.8 °F 100% 30.07 in 10.0 mi East 13.8 mph 21.9 mph N/A   Overcast
9:55 PM 51.8 °F - 51.8 °F 100% 30.07 in 10.0 mi East 11.5 mph - N/A   Overcast
10:15 PM 51.8 °F - 51.8 °F 100% 30.07 in 10.0 mi East 13.8 mph 17.3 mph N/A   Overcast
10:35 PM 51.8 °F - 51.8 °F 100% 30.07 in 10.0 mi East 10.4 mph - 0.04 in   Overcast
10:55 PM 51.8 °F - 51.8 °F 100% 30.06 in 10.0 mi East 9.2 mph - 0.05 in   Overcast
11:15 PM 51.8 °F - 51.8 °F 100% 30.05 in 10.0 mi East 10.4 mph - 0.03 in   Overcast
11:35 PM 51.8 °F - 51.8 °F 100% 30.04 in 10.0 mi ENE 10.4 mph 17.3 mph 0.03 in   Overcast
11:55 PM 51.8 °F - 51.8 °F 100% 30.04 in 10.0 mi ENE 10.4 mph - 0.08 in Rain Light Rain